[[{"header":{"parameterUnit":"m.s-1","parameterCategory":2,"la1":30.2991,"la2":30.254,"lo1":-89.0895,"lo2":-89.0444,"dy":0.0017,"dx":0.0017,"nx":28,"ny":28,"refTime":"2025-03-27T03:00:00:Z","depth":"0","parameterNumber":2,"parameterNumberName":"U-component_of_CURRENTS"},"data":[0,0,0,0,0,0,0,0,0,0,0,0,0,0,0,0,0,0,0,0,0,0,0,0,0,0,0,0,0,0,0,0,0,0,0,0,0,0,0,0,0,0,0,0,0,0,0,0,0,0,0,0,0,0,0,0,0,0,-0.2468,-0.2468,0,-0.2407,-0.2406,-0.2405,-0.2331,-0.2331,-0.233,-0.233,-0.2191,-0.2188,-0.2185,0,0,0,0,0,0,0,0,0,0,0,0,0,-0.2451,-0.2452,-0.2468,-0.2468,-0.2468,-0.2407,-0.2406,-0.2405,-0.2332,-0.2331,-0.233,-0.2329,-0.2192,-0.2189,-0.2185,0,0,0,0,0,0,0,0,0,0,0,0,0,-0.2426,-0.2452,-0.2468,-0.2428,-0.2424,-0.2408,-0.2406,-0.2404,-0.2332,-0.2331,-0.233,-0.2329,-0.2193,-0.2189,-0.2184,-0.2174,0,0,-0.217,-0.2168,0,0,0,0,0,0,0,0,-0.2428,-0.2426,-0.2434,-0.2431,-0.2427,-0.2381,-0.235,-0.2325,-0.2332,-0.2361,-0.233,-0.2329,-0.2252,-0.2242,-0.2226,-0.2168,-0.2162,-0.217,-0.2167,-0.2165,-0.2164,0,0,0,0,0,0,0,-0.243,-0.2428,-0.2438,-0.2434,-0.243,-0.239,-0.2385,-0.2344,-0.2306,-0.2358,-0.2354,-0.2357,-0.2248,-0.2231,-0.2222,-0.216,-0.217,-0.2166,-0.2163,-0.2161,-0.2111,-0.2112,0,0,0,0,0,0,-0.2454,-0.243,-0.244,-0.2437,-0.2431,-0.2391,-0.2386,-0.2392,-0.2308,-0.2297,-0.2358,-0.2354,-0.2239,-0.2228,-0.2217,-0.2226,-0.2165,-0.2161,-0.2158,-0.211,-0.2111,-0.2113,0,0,0,0,0,0,-0.2454,-0.2455,-0.2443,-0.2436,-0.2433,-0.2394,-0.24,-0.2391,-0.2376,-0.231,-0.2296,-0.2353,-0.2238,-0.2223,-0.2196,-0.2219,-0.2158,-0.2154,-0.2108,-0.211,-0.2112,-0.2227,0,0,0,0,0,0,-0.2453,-0.2456,-0.2463,-0.2438,-0.2434,-0.2441,-0.2402,-0.2391,-0.2382,-0.2376,-0.2302,-0.2287,-0.2236,-0.2203,-0.2191,-0.2211,-0.2151,-0.2106,-0.2109,-0.2111,-0.2221,-0.2233,-0.2242,0,0,0,0,0,-0.2453,-0.2469,-0.2463,-0.2464,-0.2447,-0.2442,-0.2436,-0.24,-0.2383,-0.2382,-0.234,-0.229,-0.2212,-0.2201,-0.2186,-0.2205,-0.2105,-0.2108,-0.2111,-0.2216,-0.223,-0.2242,0,0,0,0,0,0,-0.2461,-0.2463,-0.2456,-0.247,-0.2463,-0.2432,-0.2427,-0.2411,-0.2377,-0.2368,-0.2304,-0.2287,-0.227,-0.2227,-0.2217,-0.2201,-0.2152,-0.2153,-0.2237,-0.2249,-0.226,-0.2288,-0.2147,0,0,0,0,0,-0.2472,-0.2483,-0.2478,-0.2488,-0.2488,-0.2462,-0.2454,-0.2437,-0.2409,-0.2392,-0.2347,-0.2303,-0.2273,-0.2254,-0.2213,-0.2204,-0.219,-0.221,-0.222,-0.223,-0.2244,-0.2247,-0.226,-0.2124,-0.2124,-0.2124,0,0,-0.2477,-0.2481,-0.2486,-0.2491,-0.2478,-0.2487,-0.2453,-0.2451,-0.2463,-0.2383,-0.2376,-0.2333,-0.2279,-0.2269,-0.2258,-0.2236,-0.2266,-0.2234,-0.2242,-0.2252,-0.2252,-0.2266,-0.2277,-0.2126,-0.2126,-0.2125,0,0,-0.2488,-0.25,-0.2506,-0.2512,-0.2511,-0.2506,-0.2514,-0.2494,-0.2488,-0.2478,-0.2435,-0.2417,-0.2355,-0.2338,-0.2318,-0.2366,-0.232,-0.2348,-0.2425,-0.2429,-0.244,-0.245,-0.2474,-0.2484,-0.2357,-0.2357,-0.2358,0,-0.2491,-0.2506,-0.2507,-0.2519,-0.2538,-0.2522,-0.2544,-0.254,-0.2516,-0.2532,-0.2487,-0.2446,-0.2392,-0.2412,-0.2424,-0.239,-0.239,-0.2381,-0.2444,-0.2453,-0.2462,-0.2483,-0.2493,-0.2363,-0.2363,-0.2362,-0.2361,0,-0.2504,-0.2522,-0.253,-0.255,-0.2574,-0.2588,-0.2605,-0.2621,-0.2612,-0.2608,-0.2619,-0.2557,-0.2536,-0.2521,-0.2478,-0.2522,-0.2505,-0.2456,-0.2415,-0.2483,-0.25,-0.2509,-0.2372,-0.237,-0.2368,-0.2366,0,0,-0.2489,-0.253,-0.2532,-0.2564,-0.2596,-0.2624,-0.2669,-0.2712,-0.2757,-0.2723,-0.2773,-0.272,-0.2694,-0.2672,-0.2629,-0.2632,-0.2684,-0.2576,-0.2573,-0.2606,-0.2716,-0.2601,-0.2599,-0.2647,-0.2648,-0.265,-0.2714,0,-0.2493,-0.253,-0.256,-0.2621,-0.2649,-0.2692,-0.275,-0.2797,-0.2811,-0.2853,-0.2824,-0.2829,-0.2752,-0.2744,-0.2741,-0.269,-0.271,-0.2673,-0.2639,-0.2638,-0.2533,-0.2605,-0.2484,-0.2521,-0.2722,-0.2724,-0.2725,0,-0.2482,-0.2524,-0.2569,-0.2685,-0.2707,-0.2747,-0.2865,-0.2911,-0.2975,-0.2991,-0.3,-0.297,-0.2976,-0.2889,-0.2866,-0.2846,-0.2799,-0.276,-0.276,-0.2617,-0.2539,-0.248,-0.2529,-0.247,-0.2738,-0.2737,-0.2736,0,-0.2458,-0.2538,-0.2583,-0.2612,-0.2725,-0.2779,-0.2848,-0.2937,-0.3004,-0.3067,-0.3101,-0.3106,-0.309,-0.3046,-0.2936,-0.2914,-0.2906,-0.2859,-0.273,-0.2722,-0.2593,-0.257,-0.2581,-0.2865,-0.2865,-0.2865,-0.2865,0,-0.2443,-0.2486,-0.2574,-0.2598,-0.2708,-0.2787,-0.2901,-0.2971,-0.3071,-0.3133,-0.3152,-0.3168,-0.3122,-0.3092,-0.3006,-0.2887,-0.2956,-0.2765,-0.2732,-0.263,-0.261,-0.2526,-0.2524,-0.2867,-0.2867,-0.2866,-0.2866,0,-0.2386,-0.2432,-0.2502,-0.2628,-0.2682,-0.2753,-0.293,-0.3002,-0.3098,-0.3174,-0.3193,-0.3232,-0.3164,-0.3114,-0.304,-0.2953,-0.2797,-0.2808,-0.2698,-0.2648,-0.2443,-0.2452,-0.2431,-0.2372,-0.2698,-0.2695,-0.2693,0,-0.2348,-0.2362,-0.2501,-0.2553,-0.2604,-0.2733,-0.2821,-0.2982,-0.305,-0.3171,-0.3186,-0.3184,-0.3105,-0.2992,-0.2853,-0.273,-0.2694,-0.2578,-0.2496,-0.2434,-0.2421,-0.2425,-0.2379,-0.2397,-0.2393,-0.239,-0.2387,0,-0.2283,-0.2317,-0.2384,-0.2474,-0.2565,-0.2688,-0.2811,-0.2881,-0.3031,-0.3063,-0.3043,-0.2992,-0.2912,-0.2704,-0.2594,-0.2503,-0.249,-0.2497,-0.2464,-0.2217,-0.2195,-0.2118,-0.238,-0.2355,-0.2358,-0.2361,-0.2362,-0.2364,-0.2217,-0.224,-0.2297,-0.2379,-0.2488,-0.2553,-0.2601,-0.2691,-0.2731,-0.2726,-0.2799,-0.266,-0.2568,-0.2352,-0.229,-0.2143,-0.2213,-0.2063,-0.2096,-0.212,-0.2003,-0.2195,-0.2094,-0.2095,-0.2097,-0.2098,-0.2099,0,-0.2099,-0.2129,-0.2197,-0.2274,-0.232,-0.2417,-0.2526,-0.2512,-0.2448,-0.2437,-0.236,-0.2204,-0.2036,-0.1997,-0.1866,-0.1774,-0.176,-0.1743,-0.1742,-0.1726,-0.1914,-0.1833,-0.163,-0.163,-0.163,-0.163,-0.163,-0.1631,-0.2031,-0.2032,-0.2056,-0.2057,-0.2115,-0.2111,-0.2128,-0.2089,-0.2061,-0.1873,-0.1779,-0.1779,-0.1737,-0.1756,-0.1635,-0.1573,-0.1538,-0.1482,-0.1529,-0.167,-0.1704,-0.1735,-0.1658,-0.1422,-0.1422,-0.1274,-0.1273,-0.1272]},{"header":{"parameterUnit":"m.s-1","parameterCategory":2,"la1":30.2991,"la2":30.254,"lo1":-89.0895,"lo2":-89.0444,"dy":0.0017,"dx":0.0017,"nx":28,"ny":28,"refTime":"2025-03-27T03:00:00:Z","depth":"0","parameterNumber":3,"parameterNumberName":"V-component_of_CURRENTS"},"data":[0,0,0,0,0,0,0,0,0,0,0,0,0,0,0,0,0,0,0,0,0,0,0,0,0,0,0,0,0,0,0,0,0,0,0,0,0,0,0,0,0,0,0,0,0,0,0,0,0,0,0,0,0,0,0,0,0,0,0.0241,0.0242,0,0.0301,0.0302,0.0302,0.0342,0.0342,0.0343,0.0343,0.0376,0.0376,0.0377,0,0,0,0,0,0,0,0,0,0,0,0,0,0.0171,0.0172,0.0241,0.0242,0.0243,0.0301,0.0302,0.0302,0.0342,0.0342,0.0343,0.0343,0.0376,0.0376,0.0377,0,0,0,0,0,0,0,0,0,0,0,0,0,0.0212,0.0173,0.0241,0.0271,0.0274,0.0301,0.0302,0.0303,0.0342,0.0342,0.0343,0.0344,0.0376,0.0376,0.0377,0.0368,0,0,0.0379,0.0379,0,0,0,0,0,0,0,0,0.0209,0.0214,0.0266,0.0269,0.0273,0.0316,0.0289,0.0324,0.0342,0.0314,0.0343,0.0344,0.0354,0.0357,0.0364,0.037,0.0371,0.0379,0.038,0.038,0.038,0,0,0,0,0,0,0,0.0207,0.0212,0.0263,0.0267,0.0271,0.0285,0.0292,0.0296,0.0328,0.0317,0.032,0.033,0.0356,0.0364,0.0365,0.0372,0.0379,0.038,0.038,0.038,0.0391,0.0391,0,0,0,0,0,0,0.0202,0.0209,0.0261,0.0265,0.0244,0.0286,0.0293,0.03,0.0329,0.0334,0.0329,0.0331,0.0362,0.0364,0.0367,0.0373,0.038,0.0381,0.0381,0.0391,0.0391,0.0391,0,0,0,0,0,0,0.02,0.0206,0.0259,0.024,0.0248,0.0287,0.0295,0.0301,0.0311,0.0339,0.0344,0.0333,0.0363,0.0366,0.0369,0.0374,0.0381,0.0381,0.0391,0.0391,0.0391,0.0376,0,0,0,0,0,0,0.0198,0.0204,0.0198,0.024,0.0249,0.0268,0.0294,0.0302,0.0317,0.032,0.0343,0.0347,0.0363,0.0368,0.037,0.0375,0.0382,0.0391,0.0391,0.0391,0.0377,0.0375,0.0374,0,0,0,0,0,0.0195,0.0182,0.0198,0.0204,0.0242,0.0268,0.0273,0.0302,0.0316,0.0314,0.0333,0.0347,0.0369,0.0368,0.0371,0.0376,0.0392,0.0391,0.0391,0.0377,0.0376,0.0374,0,0,0,0,0,0,0.0139,0.0186,0.0204,0.0204,0.0232,0.0275,0.0273,0.0297,0.0311,0.0312,0.034,0.0344,0.0352,0.0361,0.036,0.0378,0.0384,0.0384,0.0373,0.0372,0.037,0.0369,0.0383,0,0,0,0,0,0.0126,0.0132,0.018,0.0176,0.0192,0.0232,0.0244,0.0266,0.029,0.0297,0.0317,0.0335,0.0351,0.0358,0.0369,0.0373,0.0404,0.0379,0.0378,0.0377,0.0377,0.0428,0.0432,0.039,0.039,0.039,0,0,0.01,0.0129,0.0129,0.0165,0.019,0.0202,0.024,0.0255,0.0265,0.0296,0.0305,0.0327,0.035,0.036,0.0365,0.0369,0.0406,0.0377,0.0376,0.0376,0.0429,0.0433,0.0437,0.039,0.039,0.039,0,0,0.0068,0.0082,0.0087,0.0107,0.0146,0.017,0.0174,0.0218,0.0237,0.025,0.0281,0.0307,0.032,0.035,0.0364,0.036,0.0396,0.0361,0.0356,0.0406,0.041,0.0414,0.0465,0.0474,0.0362,0.0362,0.0362,0,0.0032,0.0049,0.0088,0.0101,0.0104,0.0154,0.0152,0.0181,0.0219,0.0237,0.0246,0.0302,0.0319,0.0354,0.0355,0.0359,0.0392,0.0361,0.0405,0.041,0.0415,0.0466,0.0476,0.0362,0.0362,0.0362,0.0362,0,0.0024,0.0022,0.0022,0.0054,0.0062,0.0062,0.0109,0.0127,0.0155,0.0193,0.0234,0.0273,0.0309,0.0323,0.0336,0.0378,0.0393,0.0398,0.0411,0.0418,0.0471,0.0482,0.0361,0.0361,0.0361,0.0361,0,0,-0.0026,0.0008,0.0007,-0.0008,0.0031,0.0026,0.0053,0.0089,0.0112,0.0163,0.0199,0.0244,0.0283,0.0302,0.0337,0.0384,0.0446,0.04,0.0403,0.0454,0.056,0.0587,0.0602,0.046,0.0461,0.0462,0.0587,0,-0.0051,-0.0057,-0.0024,-0.0059,-0.0075,-0.0031,-0.0015,0.0024,0.0076,0.0126,0.0203,0.024,0.0272,0.029,0.0347,0.0426,0.0471,0.0411,0.0543,0.0547,0.0573,0.0614,0.055,0.0657,0.0598,0.06,0.0601,0,-0.0053,-0.0078,-0.0104,-0.0133,-0.0132,-0.0138,-0.0116,-0.0093,0.0008,0.0057,0.0136,0.0199,0.0289,0.0302,0.0456,0.0417,0.0478,0.054,0.0546,0.0583,0.0594,0.0639,0.0679,0.0757,0.0617,0.0616,0.0615,0,-0.0107,-0.0133,-0.0169,-0.0179,-0.0189,-0.0194,-0.0192,-0.0115,-0.0091,0.0017,0.0059,0.0182,0.0248,0.0353,0.0492,0.047,0.0665,0.065,0.0733,0.0736,0.0714,0.0712,0.0846,0.0737,0.0737,0.0736,0.0736,0,-0.0135,-0.0171,-0.0206,-0.0236,-0.0308,-0.0272,-0.0293,-0.0248,-0.0159,-0.0108,0.0009,0.0091,0.0262,0.04,0.0503,0.0675,0.0678,0.0748,0.0776,0.0707,0.0703,0.0795,0.0831,0.0741,0.074,0.0739,0.0738,0,-0.0162,-0.0166,-0.0255,-0.0312,-0.0332,-0.0389,-0.0393,-0.0388,-0.028,-0.0201,-0.017,0.0032,0.0228,0.0403,0.0604,0.0693,0.0888,0.0887,0.0801,0.0817,0.095,0.0987,0.1167,0.121,0.0998,0.0999,0.1001,0,-0.0159,-0.02,-0.034,-0.042,-0.0452,-0.0517,-0.0544,-0.0468,-0.0437,-0.0223,-0.0184,0.0033,0.0204,0.0524,0.0699,0.09,0.0965,0.0962,0.0902,0.097,0.1033,0.106,0.1084,0.0869,0.0869,0.0869,0.0869,0,-0.0209,-0.0265,-0.0367,-0.0532,-0.0613,-0.0684,-0.0697,-0.0675,-0.0529,-0.0411,-0.0193,-0.0031,0.0283,0.0511,0.0768,0.0875,0.1,0.0969,0.106,0.0969,0.0988,0.1037,0.078,0.087,0.087,0.087,0.087,0.087,-0.0271,-0.0377,-0.0517,-0.0675,-0.0766,-0.0809,-0.0826,-0.0769,-0.0673,-0.0463,-0.0273,-0.0039,0.0295,0.0652,0.0794,0.1019,0.1035,0.1057,0.1106,0.1137,0.1152,0.0907,0.1015,0.1016,0.1016,0.1017,0.1017,0,-0.0357,-0.0476,-0.0639,-0.0814,-0.0912,-0.0917,-0.09,-0.0855,-0.0716,-0.055,-0.0344,0.0022,0.0327,0.064,0.0999,0.1133,0.1144,0.1211,0.1213,0.1239,0.1032,0.0996,0.108,0.108,0.108,0.108,0.108,0.108,-0.0412,-0.0587,-0.0687,-0.0899,-0.099,-0.1029,-0.1,-0.089,-0.0771,-0.0514,-0.0307,-0.0144,0.0349,0.094,0.1274,0.1299,0.1414,0.1397,0.1517,0.1334,0.1322,0.131,0.1287,0.143,0.1431,0.1655,0.1658,0.1659]}],[{"header":{"parameterUnit":"m.s-1","parameterCategory":2,"la1":30.2991,"la2":30.254,"lo1":-89.0895,"lo2":-89.0444,"dy":0.0017,"dx":0.0017,"nx":28,"ny":28,"refTime":"2025-03-27T03:00:00:Z","depth":"2","parameterNumber":2,"parameterNumberName":"U-component_of_CURRENTS"},"data":[0,0,0,0,0,0,0,0,0,0,0,0,0,0,0,0,0,0,0,0,0,0,0,0,0,0,0,0,0,0,0,0,0,0,0,0,0,0,0,0,0,0,0,0,0,0,0,0,0,0,0,0,0,0,0,0,0,0,-0.2212,-0.2213,0,-0.2257,-0.2257,-0.2257,-0.2211,-0.2209,-0.2208,-0.2206,-0.2099,-0.2098,-0.2096,0,0,0,0,0,0,0,0,0,0,0,0,0,-0.2117,-0.2119,-0.2212,-0.2213,-0.2214,-0.2257,-0.2257,-0.2257,-0.2211,-0.2209,-0.2207,-0.2205,-0.21,-0.2098,-0.2096,0,0,0,0,0,0,0,0,0,0,0,0,0,-0.2157,-0.2119,-0.2212,-0.2197,-0.2197,-0.2256,-0.2257,-0.2257,-0.2211,-0.2209,-0.2207,-0.2204,-0.21,-0.2098,-0.2096,-0.2131,0,0,-0.209,-0.2089,0,0,0,0,0,0,0,0,-0.2155,-0.2161,-0.2199,-0.2199,-0.2198,-0.2228,-0.2184,-0.2209,-0.2212,-0.2204,-0.2206,-0.2203,-0.2131,-0.2127,-0.2139,-0.2126,-0.2122,-0.209,-0.2088,-0.2088,-0.2087,0,0,0,0,0,0,0,-0.2152,-0.2159,-0.2227,-0.22,-0.2199,-0.2199,-0.2202,-0.2189,-0.2176,-0.2204,-0.2201,-0.2211,-0.2129,-0.2141,-0.2136,-0.212,-0.209,-0.2088,-0.2087,-0.2086,-0.206,-0.206,0,0,0,0,0,0,-0.2153,-0.2156,-0.2226,-0.2229,-0.2173,-0.2203,-0.2206,-0.2219,-0.2179,-0.2173,-0.2213,-0.2208,-0.2146,-0.2138,-0.2132,-0.2094,-0.2088,-0.2086,-0.2084,-0.2059,-0.206,-0.206,0,0,0,0,0,0,-0.2151,-0.2159,-0.2224,-0.2195,-0.2203,-0.2207,-0.2222,-0.2221,-0.2215,-0.2188,-0.2177,-0.2205,-0.2144,-0.2135,-0.2114,-0.2092,-0.2085,-0.2083,-0.2058,-0.2059,-0.206,-0.2068,0,0,0,0,0,0,-0.2148,-0.2158,-0.2166,-0.2195,-0.2205,-0.2253,-0.2225,-0.2224,-0.2226,-0.2221,-0.2179,-0.2168,-0.2141,-0.2117,-0.2112,-0.2089,-0.2081,-0.2058,-0.2059,-0.206,-0.2067,-0.2069,-0.2071,0,0,0,0,0,-0.2145,-0.2165,-0.2166,-0.2175,-0.2217,-0.2254,-0.2259,-0.2251,-0.2228,-0.2234,-0.2205,-0.2168,-0.2119,-0.2117,-0.211,-0.2086,-0.2057,-0.2059,-0.206,-0.2066,-0.2069,-0.207,0,0,0,0,0,0,-0.2133,-0.2163,-0.2165,-0.2194,-0.2219,-0.2246,-0.2255,-0.2251,-0.2239,-0.222,-0.2184,-0.2172,-0.2144,-0.2127,-0.2126,-0.2085,-0.2079,-0.2079,-0.2086,-0.2088,-0.209,-0.2098,-0.208,0,0,0,0,0,-0.2137,-0.2153,-0.2187,-0.221,-0.2222,-0.2238,-0.225,-0.2246,-0.2244,-0.2236,-0.2203,-0.2171,-0.2152,-0.2128,-0.2111,-0.2095,-0.211,-0.2075,-0.2077,-0.2078,-0.2083,-0.2097,-0.2101,-0.2064,-0.2064,-0.2064,0,0,-0.214,-0.216,-0.2168,-0.2208,-0.2224,-0.2246,-0.2238,-0.2256,-0.2254,-0.2226,-0.2198,-0.2178,-0.2153,-0.213,-0.2115,-0.2106,-0.2103,-0.208,-0.2081,-0.2085,-0.2099,-0.2103,-0.2106,-0.2065,-0.2065,-0.2065,0,0,-0.2159,-0.2172,-0.2191,-0.2212,-0.224,-0.2248,-0.2251,-0.2266,-0.2249,-0.224,-0.2213,-0.2189,-0.2153,-0.2133,-0.2119,-0.2126,-0.2117,-0.2109,-0.2113,-0.2127,-0.213,-0.2133,-0.2182,-0.2189,-0.2102,-0.2102,-0.2102,0,-0.2166,-0.2187,-0.2205,-0.2231,-0.2242,-0.2246,-0.2265,-0.2263,-0.2261,-0.2255,-0.2223,-0.2192,-0.2155,-0.2145,-0.2134,-0.2126,-0.2149,-0.2103,-0.2129,-0.2132,-0.2135,-0.2184,-0.2191,-0.2103,-0.2103,-0.2103,-0.2103,0,-0.2188,-0.2211,-0.2225,-0.225,-0.227,-0.2284,-0.229,-0.2288,-0.226,-0.2255,-0.2234,-0.22,-0.219,-0.2159,-0.2138,-0.2137,-0.2155,-0.2135,-0.2122,-0.2139,-0.219,-0.2198,-0.2103,-0.2103,-0.2103,-0.2103,0,0,-0.2173,-0.2232,-0.2229,-0.2261,-0.2273,-0.2304,-0.2295,-0.2306,-0.2333,-0.2277,-0.2304,-0.2227,-0.2221,-0.2207,-0.2182,-0.2163,-0.2193,-0.215,-0.215,-0.2197,-0.2256,-0.2138,-0.2136,-0.2175,-0.2176,-0.2176,-0.2293,0,-0.2178,-0.2231,-0.2247,-0.2292,-0.2319,-0.2329,-0.2349,-0.2358,-0.2348,-0.2378,-0.2317,-0.2331,-0.2238,-0.2252,-0.2215,-0.2213,-0.221,-0.2165,-0.2234,-0.2237,-0.2127,-0.2138,-0.1937,-0.2011,-0.2301,-0.2302,-0.2303,0,-0.2168,-0.221,-0.2248,-0.2342,-0.2358,-0.2388,-0.2436,-0.2463,-0.2489,-0.2486,-0.2466,-0.2449,-0.242,-0.2351,-0.2321,-0.23,-0.2279,-0.2256,-0.226,-0.2149,-0.2131,-0.2037,-0.2014,-0.2316,-0.2315,-0.2314,-0.2313,0,-0.213,-0.2211,-0.2242,-0.2261,-0.2356,-0.2387,-0.2443,-0.2486,-0.2526,-0.2571,-0.26,-0.257,-0.2571,-0.2522,-0.2421,-0.2401,-0.2399,-0.2381,-0.2261,-0.2256,-0.2096,-0.2073,-0.2374,-0.2374,-0.2374,-0.2373,-0.2373,0,-0.2098,-0.2136,-0.2241,-0.2261,-0.235,-0.2413,-0.251,-0.2557,-0.2634,-0.2669,-0.2666,-0.2663,-0.2605,-0.2572,-0.2495,-0.2383,-0.246,-0.2268,-0.2265,-0.2095,-0.2071,-0.2335,-0.2328,-0.2378,-0.2377,-0.2376,-0.2375,0,-0.2025,-0.2086,-0.216,-0.2279,-0.2334,-0.2396,-0.2561,-0.2622,-0.2699,-0.2749,-0.2762,-0.276,-0.2695,-0.2631,-0.2574,-0.2469,-0.2394,-0.2339,-0.215,-0.2119,-0.2247,-0.224,-0.2267,-0.2264,-0.2261,-0.2258,-0.2256,0,-0.1985,-0.2011,-0.2163,-0.222,-0.2272,-0.2398,-0.2482,-0.2623,-0.2663,-0.2753,-0.2744,-0.2746,-0.2599,-0.2502,-0.2376,-0.2265,-0.233,-0.2052,-0.1946,-0.2235,-0.2231,-0.2229,-0.2226,-0.1774,-0.1768,-0.1764,-0.176,0,-0.1916,-0.1972,-0.2025,-0.2141,-0.2239,-0.2342,-0.2456,-0.246,-0.2573,-0.2591,-0.2499,-0.24,-0.2353,-0.2103,-0.2032,-0.1941,-0.2051,-0.1949,-0.2309,-0.1803,-0.177,-0.1766,-0.178,-0.1717,-0.1721,-0.1724,-0.1727,-0.1728,-0.1845,-0.188,-0.1953,-0.2038,-0.2148,-0.2141,-0.211,-0.2182,-0.2148,-0.2073,-0.2146,-0.1981,-0.1989,-0.1715,-0.1626,-0.162,-0.1747,-0.167,-0.1686,-0.1706,-0.1598,-0.1558,-0.145,-0.1452,-0.1455,-0.1457,-0.1458,0,-0.1718,-0.1783,-0.1856,-0.1891,-0.1869,-0.2017,-0.1994,-0.1892,-0.1709,-0.1759,-0.1653,-0.1421,-0.1271,-0.1345,-0.1232,-0.1196,-0.1197,-0.118,-0.1176,-0.1217,-0.1254,-0.1124,-0.085,-0.0848,-0.0847,-0.0846,0,0,-0.1659,-0.1647,-0.1679,-0.1573,-0.1603,-0.1493,-0.1401,-0.1292,-0.1265,-0.1091,-0.1072,-0.1173,-0.1233,-0.1024,-0.0984,-0.09,-0.1053,-0.086,-0.1338,-0.1369,-0.1405,-0.1516,-0.1359,0,0,0,0,0]},{"header":{"parameterUnit":"m.s-1","parameterCategory":2,"la1":30.2991,"la2":30.254,"lo1":-89.0895,"lo2":-89.0444,"dy":0.0017,"dx":0.0017,"nx":28,"ny":28,"refTime":"2025-03-27T03:00:00:Z","depth":"2","parameterNumber":3,"parameterNumberName":"V-component_of_CURRENTS"},"data":[0,0,0,0,0,0,0,0,0,0,0,0,0,0,0,0,0,0,0,0,0,0,0,0,0,0,0,0,0,0,0,0,0,0,0,0,0,0,0,0,0,0,0,0,0,0,0,0,0,0,0,0,0,0,0,0,0,0,-0.045,-0.045,0,-0.0455,-0.0455,-0.0455,-0.0439,-0.0439,-0.0439,-0.0438,-0.0444,-0.0444,-0.0445,0,0,0,0,0,0,0,0,0,0,0,0,0,-0.0379,-0.038,-0.045,-0.045,-0.045,-0.0455,-0.0455,-0.0455,-0.0439,-0.0439,-0.0438,-0.0438,-0.0443,-0.0444,-0.0445,0,0,0,0,0,0,0,0,0,0,0,0,0,-0.0398,-0.0381,-0.045,-0.0444,-0.0443,-0.0455,-0.0455,-0.0455,-0.0439,-0.0439,-0.0438,-0.0438,-0.0443,-0.0444,-0.0445,-0.0461,0,0,-0.0447,-0.0447,0,0,0,0,0,0,0,0,-0.0397,-0.0401,-0.0444,-0.0444,-0.0444,-0.0447,-0.0432,-0.0457,-0.044,-0.044,-0.0438,-0.0437,-0.0446,-0.0446,-0.0447,-0.0461,-0.0461,-0.0447,-0.0448,-0.0448,-0.0448,0,0,0,0,0,0,0,-0.0396,-0.04,-0.0451,-0.0445,-0.0444,-0.0424,-0.0427,-0.0436,-0.0445,-0.044,-0.0439,-0.0441,-0.0445,-0.0446,-0.0447,-0.0462,-0.0447,-0.0448,-0.0448,-0.0448,-0.0451,-0.045,0,0,0,0,0,0,-0.0401,-0.04,-0.0451,-0.0451,-0.042,-0.0426,-0.0429,-0.0446,-0.0445,-0.0445,-0.0442,-0.0441,-0.0445,-0.0446,-0.0447,-0.0436,-0.0448,-0.0449,-0.0449,-0.0451,-0.0451,-0.045,0,0,0,0,0,0,-0.04,-0.0406,-0.045,-0.0425,-0.0429,-0.0429,-0.0447,-0.0446,-0.0439,-0.0447,-0.0446,-0.0435,-0.0445,-0.0446,-0.0448,-0.0437,-0.0449,-0.045,-0.0452,-0.0451,-0.045,-0.0434,0,0,0,0,0,0,-0.0398,-0.0406,-0.0413,-0.0426,-0.0431,-0.0452,-0.0448,-0.0447,-0.0443,-0.0441,-0.0442,-0.0442,-0.0445,-0.0446,-0.0448,-0.0439,-0.045,-0.0452,-0.0451,-0.0451,-0.0435,-0.0433,-0.0431,0,0,0,0,0,-0.0396,-0.0406,-0.0414,-0.042,-0.0444,-0.0453,-0.0453,-0.0449,-0.0443,-0.0441,-0.0439,-0.0441,-0.0443,-0.0447,-0.0449,-0.044,-0.0452,-0.0452,-0.0451,-0.0436,-0.0433,-0.0431,0,0,0,0,0,0,-0.0375,-0.0407,-0.0415,-0.0434,-0.0442,-0.045,-0.0444,-0.0447,-0.0444,-0.0437,-0.0443,-0.0443,-0.044,-0.0443,-0.0448,-0.0437,-0.0446,-0.0445,-0.0433,-0.0431,-0.0429,-0.0401,-0.0451,0,0,0,0,0,-0.0377,-0.0394,-0.0417,-0.0428,-0.0433,-0.0438,-0.0439,-0.0439,-0.0442,-0.0439,-0.044,-0.0438,-0.044,-0.0438,-0.0441,-0.044,-0.0397,-0.0433,-0.0431,-0.0429,-0.0407,-0.0346,-0.0336,-0.0447,-0.0447,-0.0447,0,0,-0.0371,-0.039,-0.0398,-0.0425,-0.0427,-0.0441,-0.0436,-0.0435,-0.044,-0.0441,-0.0438,-0.0435,-0.0439,-0.0434,-0.0432,-0.0434,-0.0371,-0.0428,-0.0427,-0.0405,-0.0344,-0.0333,-0.0323,-0.0447,-0.0447,-0.0447,0,0,-0.0372,-0.0383,-0.0403,-0.0411,-0.0422,-0.0428,-0.0428,-0.0436,-0.0428,-0.0431,-0.0429,-0.0412,-0.0424,-0.0413,-0.0413,-0.0402,-0.0365,-0.0408,-0.0372,-0.0314,-0.0304,-0.0294,-0.0205,-0.0187,-0.0404,-0.0404,-0.0404,0,-0.0362,-0.0401,-0.0404,-0.0424,-0.0427,-0.0425,-0.0439,-0.0436,-0.044,-0.0422,-0.0426,-0.0399,-0.0409,-0.0384,-0.038,-0.0395,-0.0343,-0.0384,-0.0309,-0.0299,-0.029,-0.02,-0.0181,-0.0403,-0.0403,-0.0403,-0.0403,0,-0.039,-0.0413,-0.0417,-0.0448,-0.0445,-0.0454,-0.0453,-0.0439,-0.0428,-0.0419,-0.0381,-0.0375,-0.0344,-0.0357,-0.0368,-0.0309,-0.0286,-0.0316,-0.0312,-0.0277,-0.0185,-0.0166,-0.0402,-0.0402,-0.0402,-0.0403,0,0,-0.0406,-0.0435,-0.0439,-0.0451,-0.0459,-0.046,-0.0447,-0.0434,-0.0407,-0.0388,-0.034,-0.0335,-0.0295,-0.029,-0.0288,-0.0248,-0.0143,-0.0249,-0.0247,-0.0152,0.0024,-0.0073,-0.006,-0.0158,-0.0155,-0.0153,0.0069,0,-0.0434,-0.0482,-0.0474,-0.0495,-0.0523,-0.0486,-0.0468,-0.044,-0.041,-0.0359,-0.0314,-0.0277,-0.0281,-0.0254,-0.0205,-0.0167,-0.0094,-0.0198,-0.003,-0.0024,-0.0109,-0.0043,-0.0062,0.0123,0.0088,0.0092,0.0094,0,-0.0489,-0.0512,-0.0548,-0.0528,-0.0526,-0.0513,-0.046,-0.044,-0.0362,-0.0329,-0.0253,-0.0214,-0.0127,-0.0151,-0.0001,-0.0063,0.0001,0.003,0.0038,-0.0042,-0.0086,0.0078,0.016,0.0127,0.0124,0.0122,0.012,0,-0.0548,-0.0561,-0.0588,-0.0591,-0.0568,-0.0533,-0.0493,-0.0425,-0.0408,-0.0293,-0.0266,-0.0135,-0.0085,0.0027,0.0098,0.007,0.0252,0.022,0.0211,0.0207,0.0229,0.0219,0.0348,0.0348,0.0347,0.0347,0.0346,0,-0.0611,-0.063,-0.061,-0.0629,-0.062,-0.0559,-0.052,-0.0464,-0.0383,-0.0378,-0.0241,-0.0226,-0.0045,0.0062,0.0151,0.0246,0.0315,0.025,0.0257,0.0232,0.022,0.0237,0.0221,0.0355,0.0353,0.0352,0.035,0,-0.0689,-0.0687,-0.0723,-0.0685,-0.0664,-0.0651,-0.0574,-0.0555,-0.0452,-0.0436,-0.0401,-0.0263,-0.0126,0.0053,0.023,0.028,0.0393,0.0407,0.0375,0.037,0.0316,0.0298,0.0464,0.0463,0.0461,0.046,0.0459,0,-0.0737,-0.0771,-0.0779,-0.0805,-0.0785,-0.0747,-0.0732,-0.0619,-0.0616,-0.0511,-0.0529,-0.0359,-0.0301,-0.0025,0.0143,0.036,0.0368,0.0432,0.0346,0.0338,0.0329,0.0313,0.0298,0.0424,0.0423,0.0422,0.0421,0,-0.0828,-0.0836,-0.0864,-0.0925,-0.0926,-0.0923,-0.0885,-0.089,-0.0784,-0.0738,-0.0696,-0.062,-0.0374,-0.0156,0.0123,0.0223,0.04,0.041,0.0465,0.0337,0.03,0.0289,0.0277,0.0413,0.0413,0.0414,0.0414,0.0415,-0.0885,-0.0944,-0.0994,-0.1039,-0.1064,-0.1086,-0.106,-0.1032,-0.0997,-0.088,-0.0846,-0.0666,-0.0458,-0.007,0.0102,0.0304,0.0284,0.0356,0.036,0.0366,0.0261,0.0216,0.0299,0.03,0.03,0.03,0.03,0,-0.0942,-0.102,-0.1098,-0.1148,-0.1183,-0.117,-0.1158,-0.1104,-0.1054,-0.0936,-0.0833,-0.0593,-0.0356,-0.0099,0.0176,0.0285,0.032,0.0329,0.0372,0.0377,0.0383,0.0281,0.0325,0.0326,0.0326,0.0327,0,0,-0.0983,-0.1068,-0.1116,-0.1219,-0.1259,-0.126,-0.1241,-0.1156,-0.1041,-0.0884,-0.0711,-0.0545,-0.0313,-0.0101,0.0067,0.0219,0.027,0.0232,0.0195,0.0229,0.0234,0.0373,0.0216,0,0,0,0,0]}],[{"header":{"parameterUnit":"m.s-1","parameterCategory":2,"la1":30.2991,"la2":30.254,"lo1":-89.0895,"lo2":-89.0444,"dy":0.0017,"dx":0.0017,"nx":28,"ny":28,"refTime":"2025-03-27T03:00:00:Z","depth":"4","parameterNumber":2,"parameterNumberName":"U-component_of_CURRENTS"},"data":[0,0,0,0,0,0,0,0,0,0,0,0,0,0,0,0,0,0,0,0,0,0,0,0,0,0,0,0,0,0,0,0,0,0,0,0,0,0,0,0,0,0,0,0,0,0,0,0,0,0,0,0,0,0,0,0,0,0,-0.0999,-0.1,0,-0.1038,-0.1038,-0.1039,-0.1054,-0.1054,-0.1054,-0.1055,-0.1066,-0.1066,-0.1066,0,0,0,0,0,0,0,0,0,0,0,0,0,-0.0895,-0.0897,-0.0999,-0.1,-0.1,-0.1038,-0.1038,-0.1039,-0.1054,-0.1054,-0.1054,-0.1055,-0.1066,-0.1066,-0.1066,0,0,0,0,0,0,0,0,0,0,0,0,0,-0.0935,-0.0897,-0.0999,-0.1015,-0.1017,-0.1038,-0.1038,-0.1039,-0.1054,-0.1054,-0.1055,-0.1055,-0.1066,-0.1066,-0.1066,-0.1061,0,0,-0.1066,-0.1067,0,0,0,0,0,0,0,0,-0.0932,-0.0938,-0.1012,-0.1014,-0.1016,-0.1044,-0.1006,-0.1046,-0.1054,-0.1037,-0.1055,-0.1055,-0.1058,-0.1059,-0.1061,-0.1062,-0.1062,-0.1066,-0.1067,-0.1067,-0.1067,0,0,0,0,0,0,0,-0.093,-0.0936,-0.1011,-0.1013,-0.1016,-0.1006,-0.1012,-0.1013,-0.1042,-0.1038,-0.104,-0.1049,-0.1058,-0.1061,-0.1062,-0.1062,-0.1066,-0.1067,-0.1067,-0.1067,-0.1112,-0.1113,0,0,0,0,0,0,-0.0934,-0.0934,-0.101,-0.1013,-0.0978,-0.1008,-0.1015,-0.1032,-0.1043,-0.1046,-0.1049,-0.105,-0.1061,-0.1061,-0.1062,-0.1112,-0.1067,-0.1067,-0.1067,-0.1111,-0.1112,-0.1114,0,0,0,0,0,0,-0.0931,-0.094,-0.1008,-0.0976,-0.0984,-0.101,-0.103,-0.1033,-0.1052,-0.1052,-0.1054,-0.1067,-0.1061,-0.1062,-0.1072,-0.111,-0.1067,-0.1067,-0.111,-0.1112,-0.1113,-0.1177,0,0,0,0,0,0,-0.0928,-0.0939,-0.0959,-0.0977,-0.0987,-0.1037,-0.103,-0.1034,-0.1058,-0.106,-0.1067,-0.1068,-0.1061,-0.1072,-0.1072,-0.111,-0.1067,-0.1108,-0.1111,-0.1113,-0.1173,-0.118,-0.1186,0,0,0,0,0,-0.0925,-0.0947,-0.096,-0.097,-0.1011,-0.1039,-0.1043,-0.1059,-0.1059,-0.1075,-0.1072,-0.1068,-0.1086,-0.1072,-0.1072,-0.1111,-0.1107,-0.111,-0.1112,-0.117,-0.1179,-0.1186,0,0,0,0,0,0,-0.0912,-0.0952,-0.0966,-0.1001,-0.1027,-0.1043,-0.1059,-0.1068,-0.1079,-0.1082,-0.1073,-0.1074,-0.1099,-0.1092,-0.1077,-0.113,-0.11,-0.1103,-0.1144,-0.1152,-0.1159,-0.1162,-0.1067,0,0,0,0,0,-0.0919,-0.0949,-0.0982,-0.1012,-0.1025,-0.1044,-0.1059,-0.1074,-0.1084,-0.109,-0.1098,-0.1102,-0.1107,-0.1118,-0.112,-0.1145,-0.1135,-0.1173,-0.1179,-0.1185,-0.1188,-0.121,-0.1219,-0.1122,-0.1122,-0.1122,0,0,-0.0924,-0.095,-0.0968,-0.1011,-0.1029,-0.1056,-0.1053,-0.1085,-0.111,-0.1088,-0.1122,-0.1123,-0.1116,-0.1145,-0.1157,-0.1147,-0.1205,-0.1188,-0.1193,-0.1193,-0.1214,-0.1223,-0.1231,-0.1123,-0.1123,-0.1123,0,0,-0.0937,-0.0969,-0.0995,-0.102,-0.106,-0.1074,-0.1088,-0.1119,-0.1137,-0.1165,-0.1158,-0.1178,-0.1191,-0.12,-0.1201,-0.1244,-0.1234,-0.1255,-0.13,-0.1322,-0.133,-0.1337,-0.1328,-0.1334,-0.1266,-0.1266,-0.1266,0,-0.0942,-0.098,-0.1006,-0.1034,-0.1054,-0.1084,-0.1109,-0.1135,-0.117,-0.1182,-0.1185,-0.1212,-0.1216,-0.1242,-0.1267,-0.1261,-0.1261,-0.1271,-0.1331,-0.1338,-0.1344,-0.1333,-0.1339,-0.1269,-0.1269,-0.1269,-0.1268,0,-0.0965,-0.1004,-0.102,-0.1067,-0.1091,-0.1121,-0.1157,-0.1189,-0.1212,-0.1235,-0.1272,-0.128,-0.1297,-0.1312,-0.1306,-0.1359,-0.1339,-0.1332,-0.1312,-0.1358,-0.1343,-0.1348,-0.1274,-0.1273,-0.1272,-0.1271,0,0,-0.0957,-0.1023,-0.1035,-0.1053,-0.111,-0.1126,-0.1174,-0.1216,-0.1242,-0.1289,-0.1318,-0.1353,-0.1368,-0.1371,-0.1377,-0.1408,-0.1458,-0.1402,-0.1402,-0.1394,-0.1491,-0.1378,-0.1372,-0.147,-0.1471,-0.1472,-0.1459,0,-0.0969,-0.102,-0.1052,-0.1097,-0.1118,-0.1157,-0.1193,-0.1237,-0.1274,-0.1316,-0.1346,-0.1379,-0.1388,-0.1407,-0.1442,-0.1459,-0.1475,-0.146,-0.1447,-0.1445,-0.1341,-0.1376,-0.1477,-0.1463,-0.1464,-0.1464,-0.1465,0,-0.0979,-0.101,-0.1056,-0.1101,-0.1113,-0.1143,-0.1191,-0.1229,-0.1295,-0.1327,-0.1376,-0.1404,-0.1468,-0.1461,-0.1516,-0.1511,-0.1507,-0.151,-0.151,-0.1385,-0.1342,-0.1409,-0.1473,-0.1472,-0.1472,-0.1471,-0.1471,0,-0.0947,-0.101,-0.1042,-0.1061,-0.1121,-0.114,-0.1169,-0.123,-0.1262,-0.1341,-0.1373,-0.1443,-0.1475,-0.1512,-0.153,-0.154,-0.1562,-0.1569,-0.1449,-0.144,-0.1517,-0.151,-0.1584,-0.1584,-0.1584,-0.1584,-0.1584,0,-0.0941,-0.0967,-0.1028,-0.1047,-0.1064,-0.1113,-0.1146,-0.1188,-0.1258,-0.1286,-0.1377,-0.1397,-0.1495,-0.1519,-0.1537,-0.1499,-0.1565,-0.1455,-0.1435,-0.1542,-0.1537,-0.1519,-0.1512,-0.1584,-0.1584,-0.1584,-0.1584,0,-0.0903,-0.0956,-0.0983,-0.104,-0.1052,-0.1061,-0.1117,-0.1139,-0.1221,-0.1261,-0.1293,-0.1382,-0.1417,-0.1468,-0.1509,-0.1479,-0.1471,-0.1425,-0.1514,-0.1499,-0.1334,-0.133,-0.1319,-0.1315,-0.1311,-0.1309,-0.1306,0,-0.0888,-0.0906,-0.0959,-0.0962,-0.0986,-0.1012,-0.1025,-0.1107,-0.1128,-0.1224,-0.1225,-0.1294,-0.1339,-0.1306,-0.1371,-0.1381,-0.136,-0.1343,-0.1368,-0.1328,-0.131,-0.1312,-0.1313,-0.1301,-0.13,-0.1299,-0.1298,0,-0.0843,-0.0874,-0.0892,-0.0893,-0.0904,-0.0919,-0.0943,-0.0957,-0.1043,-0.113,-0.1144,-0.1175,-0.1189,-0.1233,-0.123,-0.1238,-0.1368,-0.1309,-0.1316,-0.134,-0.1307,-0.1292,-0.1297,-0.1287,-0.1288,-0.1289,-0.129,0,-0.0803,-0.0793,-0.0814,-0.0803,-0.0817,-0.081,-0.0843,-0.0861,-0.09,-0.1017,-0.1005,-0.1082,-0.1157,-0.1152,-0.1153,-0.1155,-0.1158,-0.1141,-0.1158,-0.1172,-0.1132,-0.1069,-0.0958,0,0,0,0,0,-0.0754,-0.0731,-0.0715,-0.0698,-0.0711,-0.0716,-0.0775,-0.0818,-0.0904,-0.0886,-0.0953,-0.0965,-0.0994,-0.1029,-0.1006,-0.1086,-0.1156,-0.1054,-0.1144,-0.1222,-0.1235,-0.1204,0,0,0,0,0,0,-0.0721,-0.0708,-0.0684,-0.061,-0.0582,-0.0584,-0.0624,-0.0687,-0.0689,-0.079,-0.081,-0.0893,-0.0932,-0.0985,-0.0977,-0.099,-0.1026,-0.1105,-0.1103,-0.1214,-0.1227,-0.1237,-0.121,0,0,0,0,0]},{"header":{"parameterUnit":"m.s-1","parameterCategory":2,"la1":30.2991,"la2":30.254,"lo1":-89.0895,"lo2":-89.0444,"dy":0.0017,"dx":0.0017,"nx":28,"ny":28,"refTime":"2025-03-27T03:00:00:Z","depth":"4","parameterNumber":3,"parameterNumberName":"V-component_of_CURRENTS"},"data":[0,0,0,0,0,0,0,0,0,0,0,0,0,0,0,0,0,0,0,0,0,0,0,0,0,0,0,0,0,0,0,0,0,0,0,0,0,0,0,0,0,0,0,0,0,0,0,0,0,0,0,0,0,0,0,0,0,0,-0.0199,-0.0199,0,-0.0163,-0.0163,-0.0163,-0.0159,-0.0159,-0.016,-0.016,-0.0146,-0.0146,-0.0145,0,0,0,0,0,0,0,0,0,0,0,0,0,-0.0248,-0.0247,-0.0199,-0.0199,-0.0198,-0.0164,-0.0163,-0.0163,-0.0159,-0.0159,-0.016,-0.016,-0.0147,-0.0146,-0.0145,0,0,0,0,0,0,0,0,0,0,0,0,0,-0.0221,-0.0247,-0.0199,-0.0192,-0.0191,-0.0164,-0.0163,-0.0162,-0.0159,-0.0159,-0.016,-0.016,-0.0147,-0.0146,-0.0145,-0.0127,0,0,-0.0142,-0.0141,0,0,0,0,0,0,0,0,-0.0223,-0.0219,-0.0194,-0.0193,-0.0192,-0.0166,-0.0175,-0.0152,-0.0159,-0.0171,-0.016,-0.0161,-0.0155,-0.0153,-0.0145,-0.0127,-0.0126,-0.0142,-0.0141,-0.0141,-0.014,0,0,0,0,0,0,0,-0.0225,-0.0221,-0.0185,-0.0193,-0.0192,-0.0185,-0.0182,-0.0171,-0.0161,-0.017,-0.017,-0.0166,-0.0154,-0.0146,-0.0145,-0.0126,-0.0142,-0.0141,-0.014,-0.014,-0.0106,-0.0106,0,0,0,0,0,0,-0.0229,-0.0222,-0.0186,-0.0184,-0.0209,-0.0184,-0.0181,-0.0174,-0.016,-0.0159,-0.0165,-0.0166,-0.0147,-0.0146,-0.0144,-0.0157,-0.0141,-0.014,-0.0139,-0.0107,-0.0106,-0.0106,0,0,0,0,0,0,-0.023,-0.0226,-0.0188,-0.0203,-0.0197,-0.0183,-0.0175,-0.0173,-0.0168,-0.0156,-0.0155,-0.0164,-0.0148,-0.0146,-0.0135,-0.0156,-0.0139,-0.0138,-0.0107,-0.0107,-0.0106,-0.0162,0,0,0,0,0,0,-0.0232,-0.0227,-0.0226,-0.0203,-0.0197,-0.018,-0.0174,-0.0172,-0.0165,-0.0165,-0.0154,-0.0153,-0.0148,-0.0137,-0.0134,-0.0154,-0.0137,-0.0107,-0.0107,-0.0106,-0.016,-0.0163,-0.0166,0,0,0,0,0,-0.0234,-0.0231,-0.0226,-0.0222,-0.0195,-0.018,-0.0176,-0.0168,-0.0164,-0.0165,-0.0153,-0.0154,-0.0132,-0.0136,-0.0133,-0.0153,-0.0107,-0.0107,-0.0106,-0.0159,-0.0163,-0.0166,0,0,0,0,0,0,-0.0249,-0.023,-0.0224,-0.0214,-0.0202,-0.0179,-0.0178,-0.0168,-0.0158,-0.0159,-0.0148,-0.0146,-0.0147,-0.0132,-0.0136,-0.0138,-0.0121,-0.012,-0.0162,-0.0165,-0.0168,-0.0189,-0.0136,0,0,0,0,0,-0.0252,-0.0247,-0.0226,-0.022,-0.0214,-0.0195,-0.0188,-0.0181,-0.0167,-0.0163,-0.0156,-0.0145,-0.014,-0.0139,-0.0129,-0.0126,-0.0123,-0.0135,-0.0138,-0.0141,-0.0153,-0.0153,-0.0158,-0.0104,-0.0104,-0.0104,0,0,-0.0258,-0.0244,-0.0243,-0.0224,-0.0212,-0.0214,-0.0193,-0.0184,-0.0193,-0.0163,-0.0173,-0.0155,-0.0139,-0.0143,-0.0142,-0.0135,-0.0154,-0.014,-0.0143,-0.0154,-0.0153,-0.0159,-0.0164,-0.0104,-0.0104,-0.0104,0,0,-0.0267,-0.0254,-0.0256,-0.0249,-0.0234,-0.0226,-0.0225,-0.0206,-0.0207,-0.0201,-0.0189,-0.0183,-0.0165,-0.0168,-0.0165,-0.0173,-0.0168,-0.0165,-0.0202,-0.0201,-0.0207,-0.0211,-0.022,-0.0224,-0.0168,-0.0168,-0.0168,0,-0.0277,-0.0274,-0.0254,-0.0256,-0.0263,-0.0235,-0.0248,-0.0241,-0.0224,-0.0233,-0.0212,-0.02,-0.0184,-0.0203,-0.0203,-0.0185,-0.0181,-0.0195,-0.0208,-0.0212,-0.0216,-0.0223,-0.0228,-0.0171,-0.0171,-0.017,-0.017,0,-0.0289,-0.0292,-0.0293,-0.0294,-0.0298,-0.03,-0.0294,-0.0298,-0.029,-0.0284,-0.0292,-0.0261,-0.026,-0.0249,-0.0227,-0.0249,-0.0237,-0.0214,-0.0207,-0.0226,-0.0231,-0.0235,-0.0175,-0.0174,-0.0173,-0.0172,0,0,-0.0304,-0.0303,-0.0307,-0.0325,-0.0321,-0.033,-0.0349,-0.0364,-0.039,-0.0362,-0.0393,-0.0365,-0.0346,-0.0339,-0.0312,-0.0305,-0.0322,-0.0271,-0.0269,-0.0294,-0.0329,-0.0277,-0.0276,-0.0299,-0.03,-0.0301,-0.0325,0,-0.0325,-0.0344,-0.0342,-0.0381,-0.0395,-0.0397,-0.0424,-0.0436,-0.0436,-0.0456,-0.0428,-0.0436,-0.0382,-0.0381,-0.0366,-0.033,-0.0333,-0.0318,-0.0295,-0.0294,-0.0258,-0.0279,-0.0303,-0.0328,-0.0329,-0.0329,-0.033,0,-0.0343,-0.0357,-0.039,-0.0438,-0.0448,-0.0473,-0.0528,-0.0545,-0.0561,-0.0561,-0.0557,-0.0531,-0.052,-0.0466,-0.0429,-0.0419,-0.0385,-0.0352,-0.0352,-0.029,-0.025,-0.0302,-0.0337,-0.0336,-0.0336,-0.0335,-0.0335,0,-0.0367,-0.0401,-0.0434,-0.0446,-0.0484,-0.052,-0.0549,-0.0579,-0.0609,-0.0627,-0.0642,-0.0621,-0.0612,-0.0561,-0.0478,-0.0459,-0.0434,-0.0403,-0.0334,-0.033,-0.0347,-0.0341,-0.0396,-0.0396,-0.0396,-0.0396,-0.0395,0,-0.0387,-0.0421,-0.0452,-0.0471,-0.0542,-0.0556,-0.063,-0.0653,-0.0687,-0.0722,-0.0694,-0.0702,-0.0631,-0.0597,-0.052,-0.0434,-0.0469,-0.0352,-0.0334,-0.0368,-0.0365,-0.035,-0.0344,-0.0396,-0.0396,-0.0396,-0.0396,0,-0.0401,-0.0413,-0.0465,-0.052,-0.0548,-0.06,-0.0682,-0.0728,-0.0748,-0.0792,-0.0799,-0.0777,-0.0712,-0.064,-0.0564,-0.0491,-0.0416,-0.0383,-0.0442,-0.0425,-0.0307,-0.0304,-0.0318,-0.0316,-0.0315,-0.0314,-0.0313,0,-0.0407,-0.0424,-0.0502,-0.0548,-0.0578,-0.0654,-0.0707,-0.0754,-0.079,-0.0821,-0.0835,-0.0804,-0.0766,-0.0626,-0.0544,-0.0423,-0.0389,-0.0373,-0.0323,-0.0319,-0.03,-0.0299,-0.0297,-0.0311,-0.031,-0.031,-0.031,0,-0.0423,-0.0446,-0.0488,-0.0574,-0.0644,-0.0722,-0.079,-0.0819,-0.0857,-0.0882,-0.0846,-0.0778,-0.071,-0.0596,-0.0512,-0.0417,-0.0392,-0.0358,-0.036,-0.0312,-0.031,-0.0293,-0.0293,-0.0305,-0.0306,-0.0306,-0.0306,0,-0.0437,-0.0473,-0.0524,-0.0605,-0.0689,-0.0757,-0.08,-0.0826,-0.0856,-0.0866,-0.0851,-0.0774,-0.074,-0.0594,-0.0509,-0.0415,-0.0376,-0.0343,-0.0345,-0.0349,-0.0331,-0.0331,-0.0328,0,0,0,0,0,-0.0449,-0.0485,-0.0556,-0.0639,-0.0718,-0.0764,-0.0839,-0.0866,-0.0895,-0.0859,-0.0849,-0.0768,-0.0627,-0.0576,-0.0468,-0.0486,-0.0376,-0.0358,-0.0341,-0.0279,-0.0284,-0.025,0,0,0,0,0,0,-0.0458,-0.0514,-0.0549,-0.0641,-0.0697,-0.0782,-0.0828,-0.0852,-0.0821,-0.0829,-0.0747,-0.0724,-0.0584,-0.0671,-0.0454,-0.0432,-0.0404,-0.03,-0.0297,-0.0276,-0.0281,-0.0285,-0.0252,0,0,0,0,0]}]]